This demonstration page uses our WeatherBlox Daily Observations layout. Learn more.

Left ArrowRight Arrow

34.02893, -84.19858

Hourly Observations for November 13, 2016

Temp ( °F °C ) Dew Point ( °F °C ) Humidity (%) Winds ( mph kmh ) Pressure ( in mb ) Visibility ( mi km ) Precip ( " mm )
12:53 am 00:53 Cloudy with Smoke 53 11.7 32 0 45 45 VRB 5 7 30.26 1025 10 16 0.00 0.00
1:53 am 01:53 Cloudy with Smoke 53 11.7 31 -0.6 43 43 E 3 6 30.25 1024 10 16 0.00 0.00
2:53 am 02:53 Mostly Cloudy with Smoke 52 11.1 31 -0.6 45 45 E 9 15 30.24 1024 10 16 0.00 0.00
3:53 am 03:53 Cloudy with Smoke 51 10.6 30 -1.1 44 44 VRB 6 9 30.24 1024 10 16 0.00 0.00
4:53 am 04:53 Cloudy with Smoke 50 10 30 -1.1 46 46 VRB 6 9 30.24 1024 10 16 0.00 0.00
5:53 am 05:53 Cloudy with Smoke 49 9.4 31 -0.6 50 50 Calm 30.25 1024 10 16 0.00 0.00
6:53 am 06:53 Cloudy with Smoke 49 9.4 30 -1.1 48 48 ENE 6 9 30.27 1025 10 16 0.00 0.00
7:53 am 07:53 Cloudy with Smoke 48 8.9 32 0 54 54 VRB 6 9 30.28 1026 10 16 0.00 0.00
8:53 am 08:53 Cloudy with Haze 47 8.3 33 0.6 59 59 ENE 10 17 30.30 1026 4 6 0.00 0.00
9:53 am 09:53 Cloudy with Haze 47 8.3 32 0 56 56 VRB 6 9 30.31 1026 6 10 0.00 0.00
10:53 am 10:53 Cloudy with Smoke 47 8.3 35 1.7 63 63 VRB 7 11 30.32 1027 8 13 0.00 0.00
11:53 am 11:53 Cloudy with Smoke 49 9.4 33 0.6 55 55 VRB 6 9 30.29 1026 9 14 0.00 0.00
12:53 pm 12:53 Cloudy with Smoke 50 10 35 1.7 57 57 VRB 6 9 30.25 1024 10 16 0.00 0.00
1:53 pm 13:53 Mostly Cloudy with Smoke 53 11.7 37 2.8 55 55 NE 7 11 30.22 1023 10 16 0.00 0.00
2:53 pm 14:53 Partly Cloudy with Smoke 55 12.8 38 3.3 53 53 Calm 30.19 1022 9 14 0.00 0.00
3:53 pm 15:53 Mostly Cloudy with Smoke 55 12.8 39 3.9 55 55 Calm 30.18 1022 9 14 0.00 0.00
4:53 pm 16:53 Mostly Cloudy with Smoke 54 12.2 40 4.4 59 59 Calm 30.18 1022 8 13 0.00 0.00
5:53 pm 17:53 Mostly Cloudy with Smoke 51 10.6 40 4.4 66 66 Calm 30.17 1022 8 13 0.00 0.00
6:53 pm 18:53 Clear with Smoke 48 8.9 40 4.4 74 74 SE 3 6 30.19 1022 8 13 0.00 0.00
7:53 pm 19:53 Clear with Smoke 45 7.2 40 4.4 83 83 Calm 30.20 1023 7 11 0.00 0.00
8:53 pm 20:53 Clear with Smoke 43 6.1 39 3.9 86 86 Calm 30.20 1023 7 11 0.00 0.00
9:53 pm 21:53 Clear with Mist and Fog 42 5.6 39 3.9 89 89 Calm 30.20 1023 6 10 0.00 0.00
10:53 pm 22:53 Clear with Mist and Fog 40 4.4 38 3.3 93 93 Calm 30.19 1022 5 8 0.00 0.00
11:53 pm 23:53 Clear with Mist and Fog 41 5 38 3.3 89 89 Calm 30.18 1022 5 8 0.00 0.00

Powered by AerisWeather